Weather Service Report


301 
FPUS83 KFGF 291131
OPUFGF
PRAIRIE TO PINES WEATHER ROUNDUP
NATIONAL WEATHER SERVICE EASTERN NORTH DAKOTA/GRAND FORKS ND
600 AM CDT WED JUL 29 2015

 **SATELLITE DATA USED TO AUGMENT SKY COVER AT AUTOMATED STATIONS**
 *****  WEATHER ACROSS EASTERN NORTH DAKOTA  *****
  
CITY           SKY/WX    TMP DP  RH WIND       PRES   REMARKS
GRAND FORKS    CLOUDY    65  54  67 W24G37    29.61R                  
GRAND FORKS AF CLOUDY    65  54  67 W26G33    29.63R                  
GRAND CITY NWS   N/A     63 N/A N/A W21         N/A                   
BUXTON         NOT AVBL                                               
DEVILS LAKE    CLOUDY    63  48  59 NW32G43   29.70R                  
FARGO          CLOUDY    65  51  60 SW23G32   29.75R                  
WAHPETON ARPT  SUNNY     63  46  55 W23G32    29.84S                  
$$

 *****  WEATHER ACROSS CENTRAL AND WESTERN NORTH DAKOTA  *****
  
CITY           SKY/WX    TMP DP  RH WIND       PRES   REMARKS
JAMESTOWN      CLEAR     62  49  62 W22G31    29.84R                  
BISMARCK       PTCLDY    61  47  59 W16       29.95R                  
MINOT          PTCLDY    61  50  67 W20G28    29.83R                  
MINOT AFB      PTCLDY    61  56  83 W15       29.81R                  
GARRISON         N/A     58  52  80 W14       29.90R                  
WILLISTON      MOCLDY    58  49  72 W17       29.96R                  
DICKINSON      PTCLDY    53  44  71 W13       30.02R                  
HETTINGER      CLEAR     51  41  68 W10       30.10R                  
$$

 *****  OTHER OBSERVATIONS NORTHEAST NORTH DAKOTA  *****
  
CITY           SKY/WX    TMP DP  RH WIND       PRES   REMARKS
WALHALLA       FAIR      63  59  88 MISG      29.56R                  
LANGDON        CLOUDY    59  57  94 W26G36    29.62R                  
CAVALIER       CLOUDY    63  55  77 W21G35    29.56R                  
GRAFTON        CLOUDY    64  57  77 W29       29.59R                  
CANDO          CLOUDY    61  54  77 W23G31    29.70R                  
FORT TOTTEN    NOT AVBL                                               
ROLLA          PTSUNNY   59  54  82 W23G35    29.69R                  
RUGBY          NOT AVBL                                               
 ***** THE ABOVE OBSERVATIONS ARE NON NWS ARE NOT QUALITY
        CONTROLLED AND MAY MIS-REPORT RAIN FOR SNOW...
$$

 *****  OTHER OBSERVATIONS SOUTHEAST NORTH DAKOTA *****
  
CITY           SKY/WX    TMP DP  RH WIND       PRES   REMARKS
COOPERSTOWN    NOT AVBL                                               
VALLEY CITY    NOT AVBL                                               
OAKES            N/A     61  50  67 SW16G26   29.91R                  
GWINNER        FAIR      61  48  63 SW17G25   29.89R                  
SHEYENNE NWR     N/A     62  50  63 W15       29.95S                  
BUFFALO        NOT AVBL                                               
WYNDMERE         N/A     64  50  59 W17         N/A                   
 ***** THE ABOVE OBSERVATIONS ARE NON NWS ARE NOT QUALITY
       CONTROLLED AND MAY MIS-REPORT RAIN FOR SNOW...
$$

  *****  WEATHER ACROSS NORTHERN MINNESOTA  *****     
  
CITY           SKY/WX    TMP DP  RH WIND       PRES   REMARKS
FLAG ISLAND    CLOUDY    63  59  88 SW17G25   29.42R                  
WARROAD        CLOUDY    61  57  88 SW16G26   29.49R                  
ROSEAU         CLOUDY    61  55  82 SW15G26   29.50R                  
HALLOCK        CLOUDY    63  57  82 W22G30    29.53R                  
THF RVR FALLS  CLOUDY    63  54  72 W18G29    29.61R                  
HALSTAD        NOT AVBL                                               
FOSSTON        CLOUDY    61  54  77 SW22G37   29.67S                  
BAUDETTE       CLOUDY    60  56  86 SW17G33   29.51R                  
WASKISH        CLOUDY    63  57  82 SW28G38   29.58S                  
CROOKSTON      CLOUDY    64  55  72 W21G31    29.64R                  
$$
  *****  WEATHER ACROSS CENTRAL AND WEST MINNESOTA  *****     
  
CITY           SKY/WX    TMP DP  RH WIND       PRES   REMARKS
BEMIDJI        CLOUDY    62  52  70 W18G31    29.67R                  
PARK RAPIDS    CLOUDY    65  49  56 W21G33    29.73S                  
WADENA         CLEAR     63  48  59 W20G36    29.79S                  
DETROIT LAKES  MOCLDY    63  50  63 W23G33    29.77S                  
MOORHEAD       CLOUDY    64  52  63 W21G32    29.77S                  
FERGUS FALLS   CLEAR     63  50  63 W15G25    29.83S                  
ELBOW LAKE     FAIR      62  49  62 W16G25    29.86S                  
MORRIS MN      CLEAR     63  50  63 SW16G22   29.90R                  
STAPLES        PTCLDY    63  48  59 W16G30    29.80S                  
WHEATON        CLEAR     63  48  59 W14G21    29.91R                  
$$
  *****  WEATHER ELSEWHERE ACROSS MINNESOTA  *****     
  
CITY           SKY/WX    TMP DP  RH WIND       PRES   REMARKS
DULUTH         CLEAR     64  47  53 W22G29    29.72S                  
INTRNTL FALLS  LGT RAIN  63  53  70 SW14G25   29.53S                  
ELY            CLOUDY    63  48  59 SW12G21   29.64S                  
CLOQUET        NOT AVBL                                               
BRAINERD       CLOUDY    65  49  56 W23G36    29.79R                  
HIBBING        CLOUDY    64  48  56 SW9G21    29.68R                  
ALEXANDRIA     CLEAR     63  49  60 W20G29    29.88R                  
SAINT CLOUD    CLEAR     66  49  54 SW18G26   29.87R                  
MINNEAPOLIS    PTCLDY    66  52  60 W12       29.93R                  
$$

  *****  WEATHER ACROSS SOUTH DAKOTA  *****
  
CITY           SKY/WX    TMP DP  RH WIND       PRES   REMARKS
SIOUX FALLS    CLEAR     60  51  72 SW3       30.09R                  
BROOKINGS      CLEAR     57  46  67 SW12      30.06S                  
WATERTOWN      CLEAR     60  47  61 W10       29.99S                  
HURON          CLEAR     59  48  67 SW10      30.05R                  
SISSETON         N/A     65  48  54 W17G29    29.90R                  
ABERDEEN       CLEAR     57  49  74 SW13      29.98R                  
MITCHELL       CLEAR     61  50  67 W10       30.09R                  
PIERRE         CLEAR     61  44  53 W17       30.09S                  
MOBRIDGE       CLEAR     63  45  51 W10G20    30.01R                  
RAPID CITY     CLEAR     52  40  63 W5        30.22S                  
$$

  *****  SOME WEATHER IN NEARBY STATES *****
  
CITY           SKY/WX    TMP DP  RH WIND       PRES   REMARKS
GLASGOW MT     PTCLDY    54  47  77 W6        30.06R                  
GREAT FALLS MT CLEAR     51  40  65 SW10      30.20S                  
CHEYENNE WY    CLEAR     48  33  56 W8        30.36R                  
SCOTTSBLUFF NE CLEAR     51  45  79 MISG      30.29S                  
OMAHA NE       PTCLDY    64  62  93 N6        30.12R                  
DES MOINES IA  CLOUDY    73  69  87 W3        30.08R                  
DAVENPORT IA   CLOUDY    72  70  93 W7        30.01R                  
CHICAGO IL     CLOUDY    75  70  84 W9        29.93R                  
EAU CLAIRE WI  PTCLDY    64  56  75 SW8       29.91S                  
LA CROSSE WI   MOCLDY    70  56  61 W12       29.97R                  
$$

  *****  SOME NATIONAL WEATHER *****
  
CITY           SKY/WX    TMP DP  RH WIND       PRES   REMARKS
LA GUARDIA NY  PTSUNNY   79  67  66 NW5       29.97R                  
RALEIGH NC     CLOUDY    75  70  84 SE3       30.01S                  
ATLANTA GA     PTCLDY    76  71  85 NW3       29.99R                  
NEW ORLEANS LA MOCLDY    79  73  82 W5        29.99S                  
OKLAHOMA CITY  PTCLDY    72  68  87 S3        30.01R                  
ALBUQUERQUE NM CLOUDY    73  53  49 E9        30.24R                  
SALT LAKE CITY CLEAR     57  37  47 CALM      30.26R                  
LOS ANGELES CA CLOUDY    66  63  90 W5        29.91R                  
BOISE ID       CLEAR     58  37  45 SE3       30.21S                  
SEATTLE WA     CLEAR     63  53  70 N5        30.19S                  
$$

*** WEATHER ACROSS MANITOBA...SASKATCHEWAN AND ONTARIO ***
                ***ONTARIO***
  
CITY           SKY/WX    TMP DP  RH WIND       PRES   REMARKS
GERALDTON      MOCLDY    64  61  88 S10G18    29.60F                  
THUNDER BAY    PTCLDY    66  54  63 SW13      29.62S                  
SIOUX LOOKOUT  LGT RAIN  64  54  68 SW13G25   29.43F                  
TORONTO        CLOUDY    73  63  68 N2        29.97R                  
BIG TROUT LK   PTCLDY    66  63  88 S9        29.36F                  
PICKLE LAKE    MOCLDY    63  55  77 S13G20    29.41                   
DRYDEN         CLOUDY    63  54  72 SW18G31   29.42F                  
KENORA         LGT RAIN  61  59  94 SW23G35   29.38R FOG              
$$      
                *** MANITOBA***
  
CITY           SKY/WX    TMP DP  RH WIND       PRES   REMARKS
BRANDON        CLOUDY    61  57  88 NW24G35   29.60R                  
DAUPHIN        CLOUDY    63  55  77 NW17G29   29.52R                  
ISLAND LAKE    PTCLDY    63  59  88 SE9       29.26                   
PILOT MOUND      N/A     59  55  88 W18G31      N/A                   
THE PAS        MOCLDY    63  55  77 NW22G32   29.51R                  
THOMPSON       RAIN      59  57  94 N12G23    29.34R                  
WINNIPEG       DRIZZLE   61  61 100 W22G30    29.42R FOG              
LYNN LAKE        N/A    N/A N/A N/A MISG        N/A                   
CHURCHILL      LGT RAIN  48  48 100 NE13      29.61R FOG              
GILLAM         DRIZZLE   59  57  94 NE15G26   29.27F                  
$$
                ***SASKATCHEWAN***
  
CITY           SKY/WX    TMP DP  RH WIND       PRES   REMARKS
ESTEVAN        MOCLDY    59  54  82 W16       29.86                   
KINDERSLEY     PTCLDY    52  48  87 W9        30.00R                  
LLOYDMINSTER   CLEAR     55  46  71 W12       29.95R                  
PRINCE ALBERT  MOCLDY    54  52  94 W7        29.79R                  
REGINA         MOCLDY    55  52  88 NW13      29.87R                  

Return to Home page


Western Regional Climate Center, wrcc@dri.edu